Regional Weather Roundup
Issued by NWS

Home | Current Version | Previous Version | Text Only | Print | Product List | Glossary Off
Versions: 1 2 3 4 5 6 7 8 9 10 11 12 13 14 15 16 17 18 19 20 21 22 23 24 25 26 27

000
ASUS45 KCYS 300110
RWRWY

WYOMING REGIONAL WEATHER ROUNDUP
NATIONAL WEATHER SERVICE CHEYENNE WY
700 PM MDT FRI JUL 29 2016

NOTE:  "FAIR" INDICATES FEW OR NO CLOUDS BELOW 12,000 FEET
WITH NO SIGNIFICANT WEATHER AND/OR OBSTRUCTIONS TO VISIBILITY.

WYZ001-300200-
YELLOWSTONE NATIONAL PARK

CITY           SKY/WX    TMP DP  RH WIND       PRES   REMARKS
LK YELLOWSTONE   N/A     73  33  23 VRB5      30.25S
W YELLOWSTONE  NOT AVBL

$$
WYZ002>013-054>058-071-098>099-300200-
NORTHERN WYOMING

CITY           SKY/WX    TMP DP  RH WIND       PRES   REMARKS
JACKSON        SUNNY     82  30  15 W13       30.11F
CODY           FAIR      70  55  60 N5        30.08R
GREYBULL       FAIR      88  43  20 N15       29.94S
WORLAND        FAIR      87  41  19 NE7       29.95F
SHERIDAN       FAIR      87  45  23 CALM      29.99F
BUFFALO        FAIR      80  49  33 SW7       30.08S
GILLETTE       FAIR      82  45  27 NE12      30.03S
HULETT         FAIR      79  50  36 NE7       30.05F
NEWCASTLE      MOCLDY    79  50  36 E9        30.04R

$$
WYZ014>020-022>026-101>103-300200-
CENTRAL WYOMING

CITY           SKY/WX    TMP DP  RH WIND       PRES   REMARKS
BIG PINEY      FAIR      84  31  14 NW10      30.16F
PINEDALE       FAIR      81  30  16 NW9       30.17S
DUBOIS         FAIR      73  41  31 SE17      30.16S
LANDER         FAIR      85  42  22 NW13      30.05R
RIVERTON       FAIR      83  36  18 NE16      30.03R
CASPER         TSTM      75  46  35 E16G28    30.07R
DOUGLAS        FAIR      73  54  51 SE8       30.08F

$$
WYZ021-027>030-104>119-300200-
SOUTHERN WYOMING

CITY           SKY/WX    TMP DP  RH WIND       PRES   REMARKS
EVANSTON       FAIR      84  27  12 NW20G28   30.19F
KEMMERER         N/A    N/A N/A N/A W20G30    30.19F
FORT BRIDGER   FAIR      86  27  11 NW17G28   30.20F
ROCK SPRINGS   FAIR      87  21   9 W17       30.11F
DIXON          FAIR      89  29  11 NW17G28   30.11S
RAWLINS        FAIR      86  24  10 NW10      30.10F
SARATOGA       FAIR      82  30  15 NW6G22    30.13F
LARAMIE        FAIR      70  49  47 SE22G31   30.19R
CHEYENNE       FAIR      71  55  56 S8        30.17R
TORRINGTON     FAIR      62  57  83 SE9       30.05F
PINE BLUFFS    FAIR      73  52  46 SE8       30.10R

$$




USA.gov is the U.S. government's official web portal to all federal, state and local government web resources and services.